Year,Month,Day,Hour,Minute,Value (Times are PST for temperature in C)
2017,04,23,02,52,7.50
2017,04,23,02,53,7.50
2017,04,23,02,54,7.50
2017,04,23,02,55,7.50
2017,04,23,02,56,7.50
2017,04,23,02,57,7.50
2017,04,23,02,58,7.40
2017,04,23,02,59,7.40
2017,04,23,03,00,7.40
2017,04,23,03,01,7.40
2017,04,23,03,02,7.40
2017,04,23,03,03,7.40
2017,04,23,03,04,7.30
2017,04,23,03,05,7.30
2017,04,23,03,06,7.30
2017,04,23,03,07,7.30
2017,04,23,03,08,7.30
2017,04,23,03,09,7.30
2017,04,23,03,10,7.30
2017,04,23,03,11,7.30
2017,04,23,03,12,7.30
2017,04,23,03,13,7.30
2017,04,23,03,14,7.30
2017,04,23,03,15,7.20
2017,04,23,03,16,7.20
2017,04,23,03,17,7.20
2017,04,23,03,18,7.20
2017,04,23,03,19,7.20
2017,04,23,03,20,7.20
2017,04,23,03,21,7.20
2017,04,23,03,22,7.20
2017,04,23,03,23,7.20
2017,04,23,03,24,7.20
2017,04,23,03,25,7.20
2017,04,23,03,26,7.20
2017,04,23,03,27,7.20
2017,04,23,03,28,7.10
2017,04,23,03,29,7.10
2017,04,23,03,30,7.10
2017,04,23,03,31,7.10
2017,04,23,03,32,7.10
2017,04,23,03,33,7.10
2017,04,23,03,34,7.10
2017,04,23,03,35,7.10
2017,04,23,03,36,7.00
2017,04,23,03,37,7.00
2017,04,23,03,38,7.00
2017,04,23,03,39,7.00
2017,04,23,03,40,7.00
2017,04,23,03,41,7.00
2017,04,23,03,42,7.00
2017,04,23,03,43,7.00
2017,04,23,03,44,7.00
2017,04,23,03,45,7.00
2017,04,23,03,46,6.90
2017,04,23,03,47,6.90
2017,04,23,03,48,6.90
2017,04,23,03,49,6.90
2017,04,23,03,50,6.90
2017,04,23,03,51,6.90
2017,04,23,03,52,6.90
2017,04,23,03,53,6.90
2017,04,23,03,54,6.90
2017,04,23,03,55,6.90
2017,04,23,03,56,6.90
2017,04,23,03,57,6.90
2017,04,23,03,58,6.90
2017,04,23,03,59,6.90
2017,04,23,04,00,6.90
2017,04,23,04,01,6.90
2017,04,23,04,02,6.90
2017,04,23,04,03,6.90
2017,04,23,04,04,6.90
2017,04,23,04,05,6.90
2017,04,23,04,06,6.90
2017,04,23,04,07,6.90
2017,04,23,04,08,7.00
2017,04,23,04,09,7.00
2017,04,23,04,10,7.10
2017,04,23,04,11,7.10
2017,04,23,04,12,7.10
2017,04,23,04,13,7.10
2017,04,23,04,14,7.10
2017,04,23,04,15,7.10
2017,04,23,04,16,7.10
2017,04,23,04,17,7.10
2017,04,23,04,18,7.10
2017,04,23,04,19,7.10
2017,04,23,04,20,7.10
2017,04,23,04,21,7.10
2017,04,23,04,22,7.10
2017,04,23,04,23,7.10
2017,04,23,04,24,7.10
2017,04,23,04,25,7.10
2017,04,23,04,26,7.10
2017,04,23,04,27,7.10
2017,04,23,04,28,7.10
2017,04,23,04,29,7.10
2017,04,23,04,30,7.10
2017,04,23,04,31,7.10
2017,04,23,04,32,7.10
2017,04,23,04,33,7.10
2017,04,23,04,34,7.10
2017,04,23,04,35,7.10
2017,04,23,04,36,7.10
2017,04,23,04,37,7.10
2017,04,23,04,38,7.10
2017,04,23,04,39,7.10
2017,04,23,04,40,7.10
2017,04,23,04,41,7.10
2017,04,23,04,42,7.10
2017,04,23,04,43,7.10
2017,04,23,04,44,7.10
2017,04,23,04,45,7.10
2017,04,23,04,46,7.10
2017,04,23,04,47,7.10
2017,04,23,04,48,7.10
2017,04,23,04,49,7.10
2017,04,23,04,50,7.10
2017,04,23,04,51,7.10
2017,04,23,04,52,7.10
2017,04,23,04,53,7.10
2017,04,23,04,54,7.10
2017,04,23,04,55,7.10
2017,04,23,04,56,7.10
2017,04,23,04,57,7.10
2017,04,23,04,58,7.10
2017,04,23,04,59,7.10
2017,04,23,05,00,7.10
2017,04,23,05,01,7.10
2017,04,23,05,02,7.10
2017,04,23,05,03,7.10
2017,04,23,05,04,7.10
2017,04,23,05,05,7.10
2017,04,23,05,06,7.10
2017,04,23,05,07,7.10
2017,04,23,05,08,7.10
2017,04,23,05,09,7.10
2017,04,23,05,10,7.10
2017,04,23,05,11,7.10
2017,04,23,05,12,7.10
2017,04,23,05,13,7.10
2017,04,23,05,14,7.10
2017,04,23,05,15,7.10
2017,04,23,05,16,7.10
2017,04,23,05,17,7.10
2017,04,23,05,18,7.10
2017,04,23,05,19,7.00
2017,04,23,05,20,7.00
2017,04,23,05,21,7.00
2017,04,23,05,22,7.00
2017,04,23,05,23,7.00
2017,04,23,05,24,6.90
2017,04,23,05,25,6.90
2017,04,23,05,26,6.90
2017,04,23,05,27,6.90
2017,04,23,05,28,6.90
2017,04,23,05,29,6.90
2017,04,23,05,30,6.80
2017,04,23,05,31,6.80
2017,04,23,05,32,6.80
2017,04,23,05,33,6.80
2017,04,23,05,34,6.80
2017,04,23,05,35,6.80
2017,04,23,05,36,6.80
2017,04,23,05,37,6.80
2017,04,23,05,38,6.80
2017,04,23,05,39,6.80
2017,04,23,05,40,6.70
2017,04,23,05,41,6.70
2017,04,23,05,42,6.70
2017,04,23,05,43,6.70
2017,04,23,05,44,6.70
2017,04,23,05,45,6.70
2017,04,23,05,46,6.70
2017,04,23,05,47,6.70
2017,04,23,05,48,6.70
2017,04,23,05,49,6.60
2017,04,23,05,50,6.60
2017,04,23,05,51,6.60
2017,04,23,05,52,6.60
2017,04,23,05,53,6.60
2017,04,23,05,54,6.60
2017,04,23,05,55,6.60
2017,04,23,05,56,6.60
2017,04,23,05,57,6.60
2017,04,23,05,58,6.60
2017,04,23,05,59,6.60
2017,04,23,06,00,6.60
2017,04,23,06,01,6.60
2017,04,23,06,02,6.60
2017,04,23,06,03,6.60
2017,04,23,06,04,6.60
2017,04,23,06,05,6.60
2017,04,23,06,06,6.60
2017,04,23,06,07,6.60
2017,04,23,06,08,6.60
2017,04,23,06,09,6.60
2017,04,23,06,10,6.60
2017,04,23,06,11,6.60
2017,04,23,06,12,6.60
2017,04,23,06,13,6.60
2017,04,23,06,14,6.60
2017,04,23,06,15,6.60
2017,04,23,06,16,6.60
2017,04,23,06,17,6.60
2017,04,23,06,18,6.60
2017,04,23,06,19,6.60
2017,04,23,06,20,6.60
2017,04,23,06,21,6.60
2017,04,23,06,22,6.60
2017,04,23,06,23,6.60
2017,04,23,06,24,6.60
2017,04,23,06,25,6.60
2017,04,23,06,26,6.60
2017,04,23,06,27,6.60
2017,04,23,06,28,6.60
2017,04,23,06,29,6.60
2017,04,23,06,30,6.60
2017,04,23,06,31,6.60
2017,04,23,06,32,6.60
2017,04,23,06,33,6.60
2017,04,23,06,34,6.60
2017,04,23,06,35,6.60
2017,04,23,06,36,6.70
2017,04,23,06,37,6.70
2017,04,23,06,38,6.70
2017,04,23,06,39,6.70
2017,04,23,06,40,6.70
2017,04,23,06,41,6.70
2017,04,23,06,42,6.70
2017,04,23,06,43,6.70
2017,04,23,06,44,6.70
2017,04,23,06,45,6.70
2017,04,23,06,46,6.70
2017,04,23,06,47,6.70
2017,04,23,06,48,6.70
2017,04,23,06,49,6.70
2017,04,23,06,50,6.70
2017,04,23,06,51,6.70
2017,04,23,06,52,6.70
2017,04,23,06,53,6.70
2017,04,23,06,54,6.80
2017,04,23,06,55,6.80
2017,04,23,06,56,6.80
2017,04,23,06,57,6.80
2017,04,23,06,58,6.80
2017,04,23,06,59,6.80
2017,04,23,07,00,6.80
2017,04,23,07,01,6.80
2017,04,23,07,02,6.80
2017,04,23,07,03,6.80
2017,04,23,07,04,6.80
2017,04,23,07,05,6.80
2017,04,23,07,06,6.90
2017,04,23,07,07,6.90
2017,04,23,07,08,6.90
2017,04,23,07,09,6.90
2017,04,23,07,10,6.90
2017,04,23,07,11,6.90
2017,04,23,07,12,6.90
2017,04,23,07,13,6.90
2017,04,23,07,14,6.90
2017,04,23,07,15,6.90
2017,04,23,07,16,6.90
2017,04,23,07,17,7.00
2017,04,23,07,18,7.00
2017,04,23,07,19,7.00
2017,04,23,07,20,7.00
2017,04,23,07,21,7.10
2017,04,23,07,22,7.10
2017,04,23,07,23,7.10
2017,04,23,07,24,7.10
2017,04,23,07,25,7.10
2017,04,23,07,26,7.10
2017,04,23,07,27,7.10
2017,04,23,07,28,7.10
2017,04,23,07,29,7.10
2017,04,23,07,30,7.20
2017,04,23,07,31,7.20
2017,04,23,07,32,7.20
2017,04,23,07,33,7.20
2017,04,23,07,34,7.20
2017,04,23,07,35,7.20
2017,04,23,07,36,7.20
2017,04,23,07,37,7.20
2017,04,23,07,38,7.30
2017,04,23,07,39,7.30
2017,04,23,07,40,7.30
2017,04,23,07,41,7.30
2017,04,23,07,42,7.30
2017,04,23,07,43,7.30
2017,04,23,07,44,7.40
2017,04,23,07,45,7.40
2017,04,23,07,46,7.40
2017,04,23,07,47,7.40
2017,04,23,07,48,7.40
2017,04,23,07,49,7.40
2017,04,23,07,50,7.40
2017,04,23,07,51,7.50
2017,04,23,07,52,7.50
2017,04,23,07,53,7.50
2017,04,23,07,54,7.50
2017,04,23,07,55,7.60
2017,04,23,07,56,7.60
2017,04,23,07,57,7.60
2017,04,23,07,58,7.60
2017,04,23,07,59,7.60
2017,04,23,08,00,7.60
2017,04,23,08,01,7.60
2017,04,23,08,02,7.70
2017,04,23,08,03,7.70
2017,04,23,08,04,7.70
2017,04,23,08,05,7.70
2017,04,23,08,06,7.70
2017,04,23,08,07,7.70
2017,04,23,08,08,7.70
2017,04,23,08,09,7.70
2017,04,23,08,10,7.70
2017,04,23,08,11,7.70
2017,04,23,08,12,7.70
2017,04,23,08,13,7.80
2017,04,23,08,14,7.80
2017,04,23,08,15,7.80
2017,04,23,08,16,7.80
2017,04,23,08,17,7.80
2017,04,23,08,18,7.90
2017,04,23,08,19,7.90
2017,04,23,08,20,7.90
2017,04,23,08,21,7.90
2017,04,23,08,22,7.90
2017,04,23,08,23,7.90
2017,04,23,08,24,7.90
2017,04,23,08,25,7.90
2017,04,23,08,26,8.00
2017,04,23,08,27,8.00
2017,04,23,08,28,8.00
2017,04,23,08,29,8.10
2017,04,23,08,30,8.10
2017,04,23,08,31,8.20
2017,04,23,08,32,8.20
2017,04,23,08,33,8.20
2017,04,23,08,34,8.20
2017,04,23,08,35,8.30
2017,04,23,08,36,8.30
2017,04,23,08,37,8.30
2017,04,23,08,38,8.30
2017,04,23,08,39,8.40
2017,04,23,08,40,8.40
2017,04,23,08,41,8.50
2017,04,23,08,42,8.50
2017,04,23,08,43,8.60
2017,04,23,08,44,8.70
2017,04,23,08,45,8.70
2017,04,23,08,46,8.80
2017,04,23,08,47,8.80
2017,04,23,08,48,8.90
2017,04,23,08,49,9.00
2017,04,23,08,50,9.10
2017,04,23,08,51,9.10
2017,04,23,08,52,9.20
2017,04,23,08,53,9.20
2017,04,23,08,54,9.30
2017,04,23,08,55,9.30
2017,04,23,08,56,9.40
2017,04,23,08,57,9.40
2017,04,23,08,58,9.60
2017,04,23,08,59,9.60
2017,04,23,09,00,9.70
2017,04,23,09,01,9.70
2017,04,23,09,02,9.80
2017,04,23,09,03,9.90
2017,04,23,09,04,10.00
2017,04,23,09,05,10.10
2017,04,23,09,06,10.20
2017,04,23,09,07,10.20
2017,04,23,09,08,10.30
2017,04,23,09,09,10.30
2017,04,23,09,10,10.30
2017,04,23,09,11,10.30
2017,04,23,09,12,10.40
2017,04,23,09,13,10.50
2017,04,23,09,14,10.50
2017,04,23,09,15,10.60
2017,04,23,09,16,10.60
2017,04,23,09,17,10.60
2017,04,23,09,18,10.60
2017,04,23,09,19,10.60
2017,04,23,09,20,10.70
2017,04,23,09,21,10.70
2017,04,23,09,22,10.80
2017,04,23,09,23,10.90
2017,04,23,09,24,11.00
2017,04,23,09,25,11.10
2017,04,23,09,26,11.30
2017,04,23,09,27,11.30
2017,04,23,09,28,11.40
2017,04,23,09,29,11.40
2017,04,23,09,30,11.40
2017,04,23,09,31,11.40
2017,04,23,09,32,11.40
2017,04,23,09,33,11.40
2017,04,23,09,34,11.40
2017,04,23,09,35,11.40
2017,04,23,09,36,11.50
2017,04,23,09,37,11.50
2017,04,23,09,38,11.40
2017,04,23,09,39,11.40
2017,04,23,09,40,11.40
2017,04,23,09,41,11.40
2017,04,23,09,42,11.40
2017,04,23,09,43,11.40
2017,04,23,09,44,11.50
2017,04,23,09,45,11.60
2017,04,23,09,46,11.60
2017,04,23,09,47,11.50
2017,04,23,09,48,11.50
2017,04,23,09,49,11.50
2017,04,23,09,50,11.50
2017,04,23,09,51,11.60
2017,04,23,09,52,11.60
2017,04,23,09,53,11.60
2017,04,23,09,54,11.70
2017,04,23,09,55,11.70
2017,04,23,09,56,11.70
2017,04,23,09,57,11.70
2017,04,23,09,58,11.70
2017,04,23,09,59,11.70
2017,04,23,10,00,11.70
2017,04,23,10,01,11.70
2017,04,23,10,02,11.60
2017,04,23,10,03,11.50
2017,04,23,10,04,11.50
2017,04,23,10,05,11.40
2017,04,23,10,06,11.40
2017,04,23,10,07,11.40
2017,04,23,10,08,11.40
2017,04,23,10,09,11.50
2017,04,23,10,10,11.50
2017,04,23,10,11,11.60
2017,04,23,10,12,11.60
2017,04,23,10,13,11.60
2017,04,23,10,14,11.60
2017,04,23,10,15,11.60
2017,04,23,10,16,11.70
2017,04,23,10,17,11.80
2017,04,23,10,18,11.80
2017,04,23,10,19,11.80
2017,04,23,10,20,11.80
2017,04,23,10,21,11.80
2017,04,23,10,22,11.80
2017,04,23,10,23,11.70
2017,04,23,10,24,11.70
2017,04,23,10,25,11.70
2017,04,23,10,26,11.70
2017,04,23,10,27,11.70
2017,04,23,10,28,11.70
2017,04,23,10,29,11.70
2017,04,23,10,30,11.70
2017,04,23,10,31,11.70
2017,04,23,10,32,11.70
2017,04,23,10,33,11.70
2017,04,23,10,34,11.70
2017,04,23,10,35,11.70
2017,04,23,10,36,11.60
2017,04,23,10,37,11.50
2017,04,23,10,38,11.50
2017,04,23,10,39,11.40
2017,04,23,10,40,11.30
2017,04,23,10,41,11.30
2017,04,23,10,42,11.30
2017,04,23,10,43,11.30
2017,04,23,10,44,11.30
2017,04,23,10,45,11.30
2017,04,23,10,46,11.40
2017,04,23,10,47,11.50
2017,04,23,10,48,11.60
2017,04,23,10,49,11.60
2017,04,23,10,50,11.60
2017,04,23,10,51,11.60
2017,04,23,10,52,11.60
2017,04,23,10,53,11.70
2017,04,23,10,54,11.80
2017,04,23,10,55,11.90
2017,04,23,10,56,11.90
2017,04,23,10,57,11.90
2017,04,23,10,58,11.80
2017,04,23,10,59,11.90
2017,04,23,11,00,11.90
2017,04,23,11,01,11.90
2017,04,23,11,02,11.90
2017,04,23,11,03,11.90
2017,04,23,11,04,11.90
2017,04,23,11,05,11.90
2017,04,23,11,06,11.80
2017,04,23,11,07,11.90
2017,04,23,11,08,11.90
2017,04,23,11,09,11.80
2017,04,23,11,10,11.80
2017,04,23,11,11,11.80
2017,04,23,11,12,11.90
2017,04,23,11,13,11.90
2017,04,23,11,14,12.00
2017,04,23,11,15,12.10
2017,04,23,11,16,12.10
2017,04,23,11,17,12.10
2017,04,23,11,18,12.20
2017,04,23,11,19,12.20
2017,04,23,11,20,12.20
2017,04,23,11,21,12.20
2017,04,23,11,22,12.10
2017,04,23,11,23,12.00
2017,04,23,11,24,12.00
2017,04,23,11,25,12.00
2017,04,23,11,26,12.00
2017,04,23,11,27,11.90
2017,04,23,11,28,12.00
2017,04,23,11,29,11.90
2017,04,23,11,30,11.90
2017,04,23,11,31,11.90
2017,04,23,11,32,11.90
2017,04,23,11,33,11.90
2017,04,23,11,34,11.90
2017,04,23,11,35,11.90
2017,04,23,11,36,11.90
2017,04,23,11,37,11.80
2017,04,23,11,38,11.80
2017,04,23,11,39,11.80
2017,04,23,11,40,11.80
2017,04,23,11,41,11.70
2017,04,23,11,42,11.60
2017,04,23,11,43,11.60
2017,04,23,11,44,11.60
2017,04,23,11,45,11.60
2017,04,23,11,46,11.60
2017,04,23,11,47,11.60
2017,04,23,11,48,11.70
2017,04,23,11,49,11.70
2017,04,23,11,50,11.80
2017,04,23,11,51,11.80
2017,04,23,11,52,11.70
2017,04,23,11,53,11.70
2017,04,23,11,54,11.70
2017,04,23,11,55,11.60
2017,04,23,11,56,11.70
2017,04,23,11,57,11.70
2017,04,23,11,58,11.70
2017,04,23,11,59,11.70
2017,04,23,12,00,11.80
2017,04,23,12,01,11.80
2017,04,23,12,02,12.00
2017,04,23,12,03,12.10
2017,04,23,12,04,12.20
2017,04,23,12,05,12.30
2017,04,23,12,06,12.30
2017,04,23,12,07,12.20
2017,04,23,12,08,12.20
2017,04,23,12,09,12.20
2017,04,23,12,10,12.00
2017,04,23,12,11,12.00
2017,04,23,12,12,12.00
2017,04,23,12,13,12.00
2017,04,23,12,14,12.00
2017,04,23,12,15,12.00
2017,04,23,12,16,12.00
2017,04,23,12,17,11.90
2017,04,23,12,18,11.90
2017,04,23,12,19,11.80
2017,04,23,12,20,11.80
2017,04,23,12,21,11.80
2017,04,23,12,22,11.90
2017,04,23,12,23,11.90
2017,04,23,12,24,11.90
2017,04,23,12,25,12.00
2017,04,23,12,26,12.00
2017,04,23,12,27,12.10
2017,04,23,12,28,12.20
2017,04,23,12,29,12.30
2017,04,23,12,30,12.30
2017,04,23,12,31,12.30
2017,04,23,12,32,12.30
2017,04,23,12,33,12.30
2017,04,23,12,34,12.30
2017,04,23,12,35,12.30
2017,04,23,12,36,12.30
2017,04,23,12,37,12.40
2017,04,23,12,38,12.50
2017,04,23,12,39,12.60
2017,04,23,12,40,12.60
2017,04,23,12,41,12.70
2017,04,23,12,42,12.70
2017,04,23,12,43,12.60
2017,04,23,12,44,12.50
2017,04,23,12,45,12.40
2017,04,23,12,46,12.30
2017,04,23,12,47,12.30
2017,04,23,12,48,12.20
2017,04,23,12,49,12.30
2017,04,23,12,50,12.30
2017,04,23,12,51,12.30
2017,04,23,12,52,12.30
2017,04,23,12,53,12.20
2017,04,23,12,54,12.20
2017,04,23,12,55,12.20
2017,04,23,12,56,12.20
2017,04,23,12,57,12.30
2017,04,23,12,58,12.40
2017,04,23,12,59,12.50
2017,04,23,13,00,12.50
2017,04,23,13,01,12.40
2017,04,23,13,02,12.50
2017,04,23,13,03,12.50
2017,04,23,13,04,12.50
2017,04,23,13,05,12.60
2017,04,23,13,06,12.60
2017,04,23,13,07,12.60
2017,04,23,13,08,12.70
2017,04,23,13,09,12.70
2017,04,23,13,10,12.70
2017,04,23,13,11,12.70
2017,04,23,13,12,12.70
2017,04,23,13,13,12.70
2017,04,23,13,14,12.70
2017,04,23,13,15,12.90
2017,04,23,13,16,12.90
2017,04,23,13,17,12.90
2017,04,23,13,18,12.90
2017,04,23,13,19,12.90
2017,04,23,13,20,12.80
2017,04,23,13,21,12.80
2017,04,23,13,22,12.80
2017,04,23,13,23,12.80
2017,04,23,13,24,12.90
2017,04,23,13,25,13.00
2017,04,23,13,26,13.00
2017,04,23,13,27,12.90
2017,04,23,13,28,12.90
2017,04,23,13,29,12.80
2017,04,23,13,30,12.80
2017,04,23,13,31,12.60
2017,04,23,13,32,12.50
2017,04,23,13,33,12.40
2017,04,23,13,34,12.40
2017,04,23,13,35,12.40
2017,04,23,13,36,12.40
2017,04,23,13,37,12.50
2017,04,23,13,38,12.50
2017,04,23,13,39,12.70
2017,04,23,13,40,12.70
2017,04,23,13,41,12.80
2017,04,23,13,42,12.80
2017,04,23,13,43,12.90
2017,04,23,13,44,12.90
2017,04,23,13,45,12.80
2017,04,23,13,46,12.80
2017,04,23,13,47,12.80
2017,04,23,13,48,12.80
2017,04,23,13,49,12.80
2017,04,23,13,50,12.70
2017,04,23,13,51,12.70
2017,04,23,13,52,12.70
2017,04,23,13,53,12.70
2017,04,23,13,54,12.70
2017,04,23,13,55,12.60
2017,04,23,13,56,12.60
2017,04,23,13,57,12.60
2017,04,23,13,58,12.70
2017,04,23,13,59,12.70
2017,04,23,14,00,12.70
2017,04,23,14,01,12.70
2017,04,23,14,02,12.70
2017,04,23,14,03,12.60
2017,04,23,14,04,12.60
2017,04,23,14,05,12.60
2017,04,23,14,06,12.50
2017,04,23,14,07,12.50
2017,04,23,14,08,12.50
2017,04,23,14,09,12.50
2017,04,23,14,10,12.40
2017,04,23,14,11,12.40
2017,04,23,14,12,12.40
2017,04,23,14,13,12.40
2017,04,23,14,14,12.30
2017,04,23,14,15,12.30
2017,04,23,14,16,12.30
2017,04,23,14,17,12.30
2017,04,23,14,18,12.40
2017,04,23,14,19,12.40
2017,04,23,14,20,12.40
2017,04,23,14,21,12.50
2017,04,23,14,22,12.70
2017,04,23,14,23,12.80
2017,04,23,14,24,12.80
2017,04,23,14,25,12.90
2017,04,23,14,26,12.80
2017,04,23,14,27,12.80
2017,04,23,14,28,12.80
2017,04,23,14,29,12.80
2017,04,23,14,30,12.90
2017,04,23,14,31,12.90
2017,04,23,14,32,13.00
2017,04,23,14,33,13.10
2017,04,23,14,34,13.20
2017,04,23,14,35,13.20
2017,04,23,14,36,13.20
2017,04,23,14,37,13.20
2017,04,23,14,38,13.30
2017,04,23,14,39,13.40
2017,04,23,14,40,13.40
2017,04,23,14,41,13.40
2017,04,23,14,42,13.40
2017,04,23,14,43,13.30
2017,04,23,14,44,13.30
2017,04,23,14,45,13.20
2017,04,23,14,46,13.20
2017,04,23,14,47,13.20
2017,04,23,14,48,13.20
2017,04,23,14,49,13.10
2017,04,23,14,50,13.00
2017,04,23,14,51,12.90
2017,04,23,14,52,12.80
2017,04,23,14,53,12.80
2017,04,23,14,54,12.80
2017,04,23,14,55,12.70
2017,04,23,14,56,12.70
2017,04,23,14,57,12.60
2017,04,23,14,58,12.60
2017,04,23,14,59,12.60
2017,04,23,15,00,12.50
2017,04,23,15,01,12.50
2017,04,23,15,02,12.50
2017,04,23,15,03,12.50
2017,04,23,15,04,12.50
2017,04,23,15,05,12.50
2017,04,23,15,06,12.40
2017,04,23,15,07,12.30
2017,04,23,15,08,12.20
2017,04,23,15,09,12.20
2017,04,23,15,10,12.10
2017,04,23,15,11,12.10
2017,04,23,15,12,12.10
2017,04,23,15,13,12.10
2017,04,23,15,14,12.10
2017,04,23,15,15,12.10
2017,04,23,15,16,12.20
2017,04,23,15,17,12.30
2017,04,23,15,18,12.40
2017,04,23,15,19,12.40
2017,04,23,15,20,12.40
2017,04,23,15,21,12.40
2017,04,23,15,22,12.40
2017,04,23,15,23,12.40
2017,04,23,15,24,12.40
2017,04,23,15,25,12.40
2017,04,23,15,26,12.40
2017,04,23,15,27,12.50
2017,04,23,15,28,12.60
2017,04,23,15,29,12.60
2017,04,23,15,30,12.80
2017,04,23,15,31,12.80
2017,04,23,15,32,12.90
2017,04,23,15,33,12.90
2017,04,23,15,34,12.90
2017,04,23,15,35,12.90
2017,04,23,15,36,12.90
2017,04,23,15,37,12.90
2017,04,23,15,38,12.90
2017,04,23,15,39,12.90
2017,04,23,15,40,12.90
2017,04,23,15,41,12.80
2017,04,23,15,42,12.80
2017,04,23,15,43,12.80
2017,04,23,15,44,12.80
2017,04,23,15,45,12.90
2017,04,23,15,46,12.90
2017,04,23,15,47,12.80
2017,04,23,15,48,12.80
2017,04,23,15,49,12.80
2017,04,23,15,50,12.80
2017,04,23,15,51,12.70
2017,04,23,15,52,12.70
2017,04,23,15,53,12.80
2017,04,23,15,54,12.80
2017,04,23,15,55,12.80
2017,04,23,15,56,12.80
2017,04,23,15,57,12.80
2017,04,23,15,58,12.90
2017,04,23,15,59,12.90
2017,04,23,16,00,13.00
2017,04,23,16,01,13.00
2017,04,23,16,02,13.10
2017,04,23,16,03,13.10
2017,04,23,16,04,13.00
2017,04,23,16,05,13.00
2017,04,23,16,06,12.90
2017,04,23,16,07,13.00
2017,04,23,16,08,13.00
2017,04,23,16,09,13.10
2017,04,23,16,10,13.20
2017,04,23,16,11,13.20
2017,04,23,16,12,13.20
2017,04,23,16,13,13.10
2017,04,23,16,14,13.00
2017,04,23,16,15,13.00
2017,04,23,16,16,12.90
2017,04,23,16,17,12.80
2017,04,23,16,18,12.70
2017,04,23,16,19,12.60
2017,04,23,16,20,12.60
2017,04,23,16,21,12.60
2017,04,23,16,22,12.60
2017,04,23,16,23,12.60
2017,04,23,16,24,12.60
2017,04,23,16,25,12.60
2017,04,23,16,26,12.60
2017,04,23,16,27,12.60
2017,04,23,16,28,12.50
2017,04,23,16,29,12.60
2017,04,23,16,30,12.60
2017,04,23,16,31,12.50
2017,04,23,16,32,12.50
2017,04,23,16,33,12.50
2017,04,23,16,34,12.50
2017,04,23,16,35,12.60
2017,04,23,16,36,12.60
2017,04,23,16,37,12.60
2017,04,23,16,38,12.70
2017,04,23,16,39,12.70
2017,04,23,16,40,12.70
2017,04,23,16,41,12.70
2017,04,23,16,42,12.80
2017,04,23,16,43,12.80
2017,04,23,16,44,12.80
2017,04,23,16,45,12.70
2017,04,23,16,46,12.70
2017,04,23,16,47,12.60
2017,04,23,16,48,12.50
2017,04,23,16,49,12.40
2017,04,23,16,50,12.30
2017,04,23,16,51,12.20
2017,04,23,16,52,12.10
2017,04,23,16,53,12.00
2017,04,23,16,54,12.00
2017,04,23,16,55,12.00
2017,04,23,16,56,12.00
2017,04,23,16,57,12.00
2017,04,23,16,58,12.00
2017,04,23,16,59,12.00
2017,04,23,17,00,11.90
2017,04,23,17,01,11.80
2017,04,23,17,02,11.80
2017,04,23,17,03,11.80
2017,04,23,17,04,11.80
2017,04,23,17,05,11.80
2017,04,23,17,06,11.70
2017,04,23,17,07,11.80
2017,04,23,17,08,11.80
2017,04,23,17,09,11.80
2017,04,23,17,10,11.90
2017,04,23,17,11,11.80
2017,04,23,17,12,11.80
2017,04,23,17,13,11.80
2017,04,23,17,14,11.80
2017,04,23,17,15,11.80
2017,04,23,17,16,11.80
2017,04,23,17,17,11.80
2017,04,23,17,18,11.70
2017,04,23,17,19,11.70
2017,04,23,17,20,11.70
2017,04,23,17,21,11.70
2017,04,23,17,22,11.70
2017,04,23,17,23,11.60
2017,04,23,17,24,11.60
2017,04,23,17,25,11.60
2017,04,23,17,26,11.60
2017,04,23,17,27,11.60
2017,04,23,17,28,11.60
2017,04,23,17,29,11.60
2017,04,23,17,30,11.60
2017,04,23,17,31,11.60
2017,04,23,17,32,11.60
2017,04,23,17,33,11.60
2017,04,23,17,34,11.60
2017,04,23,17,35,11.60
2017,04,23,17,36,11.70
2017,04,23,17,37,11.70
2017,04,23,17,38,11.70
2017,04,23,17,39,11.70
2017,04,23,17,40,11.70
2017,04,23,17,41,11.70
2017,04,23,17,42,11.70
2017,04,23,17,43,11.70
2017,04,23,17,44,11.70
2017,04,23,17,45,11.70
2017,04,23,17,46,11.70
2017,04,23,17,47,11.70
2017,04,23,17,48,11.60
2017,04,23,17,49,11.70
2017,04,23,17,50,11.70
2017,04,23,17,51,11.70
2017,04,23,17,52,11.60
2017,04,23,17,53,11.60
2017,04,23,17,54,11.60
2017,04,23,17,55,11.60
2017,04,23,17,56,11.60
2017,04,23,17,57,11.60
2017,04,23,17,58,11.50
2017,04,23,17,59,11.50
2017,04,23,18,00,11.50
2017,04,23,18,01,11.50
2017,04,23,18,02,11.60
2017,04,23,18,03,11.60
2017,04,23,18,04,11.60
2017,04,23,18,05,11.60
2017,04,23,18,06,11.60
2017,04,23,18,07,11.60
2017,04,23,18,08,11.70
2017,04,23,18,09,11.70
2017,04,23,18,10,11.70
2017,04,23,18,11,11.80
2017,04,23,18,12,11.80
2017,04,23,18,13,11.90
2017,04,23,18,14,11.90
2017,04,23,18,15,11.90
2017,04,23,18,16,11.90
2017,04,23,18,17,11.90
2017,04,23,18,18,11.90
2017,04,23,18,19,11.90
2017,04,23,18,20,11.90
2017,04,23,18,21,11.90
2017,04,23,18,22,11.80
2017,04,23,18,23,11.90
2017,04,23,18,24,11.90
2017,04,23,18,25,11.90
2017,04,23,18,26,11.90
2017,04,23,18,27,11.90
2017,04,23,18,28,11.90
2017,04,23,18,29,11.90
2017,04,23,18,30,11.80
2017,04,23,18,31,11.80
2017,04,23,18,32,11.80
2017,04,23,18,33,11.80
2017,04,23,18,34,11.70
2017,04,23,18,35,11.70
2017,04,23,18,36,11.70
2017,04,23,18,37,11.70
2017,04,23,18,38,11.70
2017,04,23,18,39,11.70
2017,04,23,18,40,11.70
2017,04,23,18,41,11.70
2017,04,23,18,42,11.60
2017,04,23,18,43,11.60
2017,04,23,18,44,11.60
2017,04,23,18,45,11.60
2017,04,23,18,46,11.60
2017,04,23,18,47,11.70
2017,04,23,18,48,11.70
2017,04,23,18,49,11.70
2017,04,23,18,50,11.70
2017,04,23,18,51,11.70
2017,04,23,18,52,11.70
2017,04,23,18,53,11.80
2017,04,23,18,54,11.70
2017,04,23,18,55,11.70
2017,04,23,18,56,11.70
2017,04,23,18,57,11.70
2017,04,23,18,58,11.70
2017,04,23,18,59,11.70
2017,04,23,19,00,11.60
2017,04,23,19,01,11.60
2017,04,23,19,02,11.60
2017,04,23,19,03,11.60
2017,04,23,19,04,11.60
2017,04,23,19,05,11.60
2017,04,23,19,06,11.50
2017,04,23,19,07,11.50
2017,04,23,19,08,11.50
2017,04,23,19,09,11.40
2017,04,23,19,10,11.40
2017,04,23,19,11,11.40
2017,04,23,19,12,11.40
2017,04,23,19,13,11.30
2017,04,23,19,14,11.30
2017,04,23,19,15,11.30
2017,04,23,19,16,11.30
2017,04,23,19,17,11.30
2017,04,23,19,18,11.30
2017,04,23,19,19,11.30
2017,04,23,19,20,11.30
2017,04,23,19,21,11.30
2017,04,23,19,22,11.30
2017,04,23,19,23,11.30
2017,04,23,19,24,11.20
2017,04,23,19,25,11.20
2017,04,23,19,26,11.20
2017,04,23,19,27,11.20
2017,04,23,19,28,11.20
2017,04,23,19,29,11.10
2017,04,23,19,30,11.10
2017,04,23,19,31,11.10
2017,04,23,19,32,11.10
2017,04,23,19,33,11.10
2017,04,23,19,34,11.00
2017,04,23,19,35,10.90
2017,04,23,19,36,10.90
2017,04,23,19,37,10.90
2017,04,23,19,38,10.80
2017,04,23,19,39,10.80
2017,04,23,19,40,10.80
2017,04,23,19,41,10.80
2017,04,23,19,42,10.80
2017,04,23,19,43,10.70
2017,04,23,19,44,10.70
2017,04,23,19,45,10.70
2017,04,23,19,46,10.70
2017,04,23,19,47,10.60
2017,04,23,19,48,10.60
2017,04,23,19,49,10.60
2017,04,23,19,50,10.60
2017,04,23,19,51,10.50
2017,04,23,19,52,10.50
2017,04,23,19,53,10.50
2017,04,23,19,54,10.40
2017,04,23,19,55,10.40
2017,04,23,19,56,10.40
2017,04,23,19,57,10.30
2017,04,23,19,58,10.30
2017,04,23,19,59,10.30
2017,04,23,20,00,10.30
2017,04,23,20,01,10.30
2017,04,23,20,02,10.30
2017,04,23,20,03,10.30
2017,04,23,20,04,10.20
2017,04,23,20,05,10.20
2017,04,23,20,06,10.20
2017,04,23,20,07,10.20
2017,04,23,20,08,10.20
2017,04,23,20,09,10.20
2017,04,23,20,10,10.20
2017,04,23,20,11,10.20
2017,04,23,20,12,10.10
2017,04,23,20,13,10.10
2017,04,23,20,14,10.10
2017,04,23,20,15,10.10
2017,04,23,20,16,10.10
2017,04,23,20,17,10.00
2017,04,23,20,18,10.00
2017,04,23,20,19,10.00
2017,04,23,20,20,9.90
2017,04,23,20,21,9.90
2017,04,23,20,22,9.90
2017,04,23,20,23,9.90
2017,04,23,20,24,9.80
2017,04,23,20,25,9.80
2017,04,23,20,26,9.80
2017,04,23,20,27,9.80
2017,04,23,20,28,9.70